COSMOS 886 DEB, 9816

Orbit data source: Space-Track

COSMOS 886 DEB, 9816 is space debris in LEO originally from a launch on Mon, 27 Dec 1976 UTC launched from the Tyuratam Missile And Space Complex (TTMTR). Debris objects in space refer to the collection of defunct objects orbiting the Earth. Examples of debris include non-operational satellites, rocket bodies, and fragments generated from explosions, collisions, or faulty payload assembly.

Loading next visibility...
Identifier
9816, 1976-126AC
Orbit
LEO
Country
Flag of CISCIS
Related business
Manufacturer
Unknown
Mission
Spacecraft
Bus & Motor
Unknown
Mass
Unknown
Launch date (UTC)
1976-12-27 (49 years ago)
Launch vehicle
Unknown
Launch site
Tyuratam Missile And Space Complex (TTMTR)
Object type
Payload
Rocket body
Debris
Shape & HBR
Unknown shape, 0.1 m
Radar Cross Section
Medium (>0.1 m² and <1 m²)

Expand to show TLE details & history
Last TLE update: 1 day ago

TLE from 1 day ago
0 COSMOS 886 DEB
1 09816U 76126AC  26174.73264516  .00001556  00000-0  31355-3 0  9997
2 09816  65.7932 284.1915 0569743  24.8647 337.8759 13.94472256408156
Epoch: 2026-06-23T17:35Z
TLE epoch observation values (Epoch: 2026-06-23T17:35:00.541Z)
Latitude
-0.00001°
Longitude
108.53926°
Altitude
533.779 km
Speed
7.792 km/s
True Right ascension
18h 56m 45s
True Declination
0° 00' 00"
Sunlit
Object was in full shadow at epoch
Visualization orbit readout
Latitude
Unknown
Longitude
Unknown
Altitude
Unknown
Speed
Unknown
Apparent Right ascension
Unknown
Apparent Declination
Unknown
Sunlit
N/A
Visualization observer readout
Local Sidereal Time
04:43:14
Azimuth
Unknown
Elevation
Unknown
Doppler factor
Unknown
Orbital elements
Apogee altitude
1,326.822 km
Perigee altitude
496.178 km
Semi-major axis
7,289.637 km
Eccentricity
0.05697
Inclination
65.7932°
RAAN
284.1915°
Arg. of periapsis
24.8647°
True anomaly
335.24486°
Mean anomaly
337.8759°
Eccentric anomaly
336.57832°
Mean motion
3.48726 °/min
Orbital period
103.23 mins
BSTAR
0.00031355
Loading maneuver chart data...
Computing Atmospheric mass density...
Loading historical data...
Loading historical data...
Loading historical data...
Loading historical data...
Loading historical data...
Loading historical data...
Loading historical data...

Documentation

Showing up to 5 results
|